GW5773 Weather Reports


time (UTC)temp
F
wind
direction
speed
knots
gust
knots
rain 1hr
in
rain 24hr
in
rain mn
in
humidity
%
barometer
mb
20260505034548 64 53 0.0 0.9 0.00 0.00 0.00 73 1017.8
20260505034042 64 0 0.0 0.9 0.00 0.00 0.00 73 1017.8
20260505033544 64 68 0.0 0.9 0.00 0.00 0.00 73 1017.9
20260505033053 64 68 0.0 1.7 0.00 0.00 0.00 73 1017.8
20260505032540 65 58 0.0 1.7 0.00 0.00 0.00 72 1017.8
20260505032046 65 55 0.9 2.6 0.00 0.00 0.00 72 1017.8
20260505031600 65 68 0.9 2.6 0.00 0.00 0.00 71 1017.9
20260505031043 65 88 1.7 2.6 0.00 0.00 0.00 71 1017.9
20260505030544 65 76 0.9 2.6 0.00 0.00 0.00 70 1017.9
20260505030051 66 72 0.9 3.5 0.00 0.00 0.00 70 1017.8
20260505025544 66 93 1.7 3.5 0.00 0.00 0.00 70 1017.8
20260505025044 66 117 1.7 3.5 0.00 0.00 0.00 70 1017.8
20260505024550 66 84 1.7 3.5 0.00 0.00 0.00 70 1017.8
20260505024042 66 80 1.7 3.5 0.00 0.00 0.00 70 1017.7
20260505023548 66 70 1.7 3.5 0.00 0.00 0.00 70 1017.8
20260505023052 66 79 1.7 3.5 0.00 0.00 0.00 70 1017.8
20260505022544 66 88 1.7 3.5 0.00 0.00 0.00 70 1017.8
20260505022044 66 96 1.7 3.5 0.00 0.00 0.00 70 1017.8
20260505021558 66 79 1.7 3.5 0.00 0.00 0.00 69 1017.8
20260505021045 66 50 0.9 3.5 0.00 0.00 0.00 69 1017.8
20260505020544 66 93 0.9 2.6 0.00 0.00 0.00 69 1017.7
20260505020058 67 95 0.9 3.5 0.00 0.00 0.00 69 1017.8
20260505015545 67 68 1.7 3.5 0.00 0.00 0.00 68 1017.7
20260505015045 67 81 0.9 3.5 0.00 0.00 0.00 68 1017.8
20260505014609 67 100 0.9 2.6 0.00 0.00 0.00 68 1017.7
20260505014043 67 111 0.9 3.5 0.00 0.00 0.00 68 1017.8
20260505013542 68 106 1.7 3.5 0.00 0.00 0.00 67 1017.7
20260505013053 68 78 0.9 3.5 0.00 0.00 0.00 67 1017.6
20260505012542 68 93 1.7 3.5 0.00 0.00 0.00 66 1017.6
20260505012042 68 51 0.9 3.5 0.00 0.00 0.00 66 1017.6
20260505011603 68 106 0.9 3.5 0.00 0.00 0.00 66 1017.6
20260505011043 68 111 1.7 6.1 0.00 0.00 0.00 65 1017.5
20260505010544 69 67 1.7 6.1 0.00 0.00 0.00 65 1017.4
20260505010051 69 102 2.6 5.2 0.00 0.00 0.00 64 1017.4
20260505005543 69 62 1.7 6.1 0.00 0.00 0.00 64 1017.4
20260505005043 69 73 2.6 6.1 0.00 0.00 0.00 64 1017.4
20260505004559 69 89 2.6 7.0 0.00 0.00 0.00 64 1017.3
20260505004042 69 150 1.7 8.7 0.00 0.00 0.00 63 1017.3
20260505003544 70 79 2.6 8.7 0.00 0.00 0.00 63 1017.3
20260505003055 70 74 3.5 8.7 0.00 0.00 0.00 63 1017.2
20260505002547 70 65 2.6 8.7 0.00 0.00 0.00 62 1017.2
20260505002044 70 91 3.5 8.7 0.00 0.00 0.00 62 1017.2
20260505001621 70 138 2.6 7.0 0.00 0.00 0.00 62 1017.3
20260505001042 71 10 3.5 10.4 0.00 0.00 0.00 61 1017.2
20260505000543 71 55 1.7 10.4 0.00 0.00 0.00 61 1017.2
20260505000126 71 5 5.2 10.4 0.00 0.00 0.00 60 1017.2
20260504235544 71 85 3.5 9.6 0.00 0.00 0.00 60 1017.0
20260504235042 71 103 5.2 9.6 0.00 0.00 0.00 60 1016.8
20260504234609 72 112 2.6 7.8 0.00 0.00 0.00 59 1016.8
20260504234044 72 47 4.3 12.2 0.00 0.00 0.00 59 1016.8
20260504233547 72 87 5.2 12.2 0.00 0.00 0.00 58 1016.7
20260504233106 72 155 5.2 13.0 0.00 0.00 0.00 58 1016.7
20260504232545 73 55 5.2 13.0 0.00 0.00 0.00 57 1016.6
20260504232042 73 28 6.1 13.0 0.00 0.00 0.00 56 1016.7
20260504231557 73 142 6.1 10.4 0.00 0.00 0.00 56 1016.6
20260504231042 73 32 5.2 10.4 0.00 0.00 0.00 55 1016.5
20260504230542 74 72 5.2 11.3 0.00 0.00 0.00 55 1016.5
20260504230048 74 95 5.2 11.3 0.00 0.00 0.00 55 1016.4
20260504225542 74 84 6.1 10.4 0.00 0.00 0.00 54 1016.5
20260504225048 74 87 5.2 14.8 0.00 0.00 0.00 54 1016.6
20260504224609 75 107 5.2 14.8 0.00 0.00 0.00 54 1016.5
20260504224042 75 62 4.3 11.3 0.00 0.00 0.00 53 1016.5
20260504223546 76 96 2.6 8.7 0.00 0.00 0.00 52 1016.5
20260504223100 75 129 4.3 10.4 0.00 0.00 0.00 53 1016.5
20260504222543 75 94 5.2 10.4 0.00 0.00 0.00 53 1016.6
20260504222042 76 74 4.3 10.4 0.00 0.00 0.00 52 1016.7
20260504221556 76 153 4.3 10.4 0.00 0.00 0.00 53 1016.7
20260504221043 76 109 6.1 10.4 0.00 0.00 0.00 52 1016.7
20260504220545 76 90 4.3 13.0 0.00 0.00 0.00 53 1016.7
20260504220053 76 131 5.2 13.0 0.00 0.00 0.00 51 1016.6
20260504215543 76 61 5.2 13.0 0.00 0.00 0.00 52 1016.6
20260504215044 76 87 7.0 13.0 0.00 0.00 0.00 52 1016.5
20260504214553 76 82 7.0 13.0 0.00 0.00 0.00 52 1016.6
20260504214042 76 54 5.2 12.2 0.00 0.00 0.00 51 1016.5
20260504213544 76 70 4.3 12.2 0.00 0.00 0.00 49 1016.5
20260504213125 76 98 3.5 8.7 0.00 0.00 0.00 51 1016.5
20260504212543 76 94 5.2 8.7 0.00 0.00 0.00 51 1016.5
20260504212047 76 97 4.3 12.2 0.00 0.00 0.00 52 1016.7
20260504211559 76 86 5.2 13.9 0.00 0.00 0.00 51 1016.7
20260504211043 77 79 3.5 13.9 0.00 0.00 0.00 50 1016.7
20260504210544 76 37 4.3 10.4 0.00 0.00 0.00 49 1016.6
20260504210055 76 98 5.2 10.4 0.00 0.00 0.00 48 1016.8
20260504205544 77 117 6.1 11.3 0.00 0.00 0.00 46 1016.9
20260504205045 77 97 3.5 11.3 0.00 0.00 0.00 47 1017.0
20260504204553 76 59 7.0 11.3 0.00 0.00 0.00 50 1017.0
20260504204042 75 85 4.3 10.4 0.00 0.00 0.00 49 1017.0
20260504203544 76 94 5.2 8.7 0.00 0.00 0.00 48 1017.2
20260504203109 77 75 4.3 9.6 0.00 0.00 0.00 47 1017.1
20260504202542 76 63 3.5 9.6 0.00 0.00 0.00 47 1017.1
20260504202043 77 121 5.2 10.4 0.00 0.00 0.00 46 1017.2
20260504201548 77 139 3.5 10.4 0.00 0.00 0.00 45 1017.1
20260504201042 77 308 5.2 10.4 0.00 0.00 0.00 45 1017.0
20260504200542 77 107 4.3 15.6 0.00 0.00 0.00 45 1017.1
20260504200054 77 26 5.2 15.6 0.00 0.00 0.00 45 1017.0
20260504195541 78 104 3.5 10.4 0.00 0.00 0.00 44 1017.2
20260504195045 78 115 3.5 10.4 0.00 0.00 0.00 43 1017.2
20260504194601 78 98 3.5 8.7 0.00 0.00 0.00 44 1017.3
20260504194042 78 69 3.5 8.7 0.00 0.00 0.00 43 1017.4
20260504193545 77 135 3.5 8.7 0.00 0.00 0.00 43 1017.4
20260504193058 77 92 5.2 12.2 0.00 0.00 0.00 42 1017.4
20260504192543 78 88 3.5 16.5 0.00 0.00 0.00 43 1017.5
20260504192043 77 98 7.0 16.5 0.00 0.00 0.00 44 1017.5
20260504191555 78 91 4.3 12.2 0.00 0.00 0.00 43 1017.4
20260504191042 78 124 4.3 12.2 0.00 0.00 0.00 44 1017.5
20260504190547 78 131 4.3 16.5 0.00 0.00 0.00 42 1017.6
20260504190058 77 48 8.7 16.5 0.00 0.00 0.00 43 1017.6
20260504185542 78 65 6.1 13.0 0.00 0.00 0.00 44 1017.7
20260504185042 78 98 6.1 11.3 0.00 0.00 0.00 44 1017.8
20260504184600 78 1 5.2 11.3 0.00 0.00 0.00 41 1018.0
20260504184043 77 80 4.3 10.4 0.00 0.00 0.00 40 1017.9
20260504183547 78 49 5.2 12.2 0.00 0.00 0.00 37 1018.0
20260504183048 78 67 3.5 12.2 0.00 0.00 0.00 36 1018.1
20260504182546 77 63 7.0 12.2 0.00 0.00 0.00 37 1018.1
20260504182044 78 86 2.6 9.6 0.00 0.00 0.00 38 1018.2
20260504181548 78 96 1.7 13.9 0.00 0.00 0.00 38 1018.2
20260504181044 76 158 5.2 14.8 0.00 0.00 0.00 39 1018.2
20260504180546 77 23 7.0 14.8 0.00 0.00 0.00 37 1018.1
20260504180052 78 80 5.2 10.4 0.00 0.00 0.00 39 1018.1
20260504175542 78 62 5.2 12.2 0.00 0.00 0.00 40 1018.2
20260504175043 77 83 5.2 12.2 0.00 0.00 0.00 40 1018.3
20260504174601 78 92 5.2 12.2 0.00 0.00 0.00 39 1018.4
20260504174048 78 266 2.6 8.7 0.00 0.00 0.00 38 1018.4
20260504173547 77 97 2.6 12.2 0.00 0.00 0.00 38 1018.6
20260504173058 77 101 4.3 12.2 0.00 0.00 0.00 37 1018.7
20260504172546 77 42 4.3 12.2 0.00 0.00 0.00 38 1018.7
20260504172048 77 20 7.0 12.2 0.00 0.00 0.00 38 1018.6
20260504171552 78 62 2.6 13.0 0.00 0.00 0.00 36 1018.6
20260504171049 77 79 4.3 13.0 0.00 0.00 0.00 37 1018.8
20260504170547 77 65 5.2 13.0 0.00 0.00 0.00 38 1018.8
20260504151047 76 83 2.6 8.7 0.00 0.00 0.00 36 1019.2
20260504150545 75 20 5.2 7.8 0.00 0.00 0.00 35 1019.2
20260504141045 73 108 4.3 9.6 0.00 0.00 0.00 38 1019.3
20260504140545 73 45 2.6 7.8 0.00 0.00 0.00 41 1019.2
20260504140103 73 281 2.6 7.8 0.00 0.00 0.00 37 1019.3
20260504130547 70 68 3.5 5.2 0.00 0.00 0.00 54 1019.2
20260504110547 55 0 0.0 0.0 0.00 0.00 0.00 94 1018.5
20260504110111 55 0 0.0 0.0 0.00 0.00 0.00 94 1018.4
20260504100544 54 0 0.0 0.0 0.00 0.00 0.00 93 1018.2
20260504100104 54 0 0.0 0.0 0.00 0.00 0.00 93 1018.1
20260504090117 55 0 0.0 0.0 0.00 0.00 0.00 93 1018.4
20260504081548 55 0 0.0 0.0 0.00 0.00 0.00 92 1018.5
20260504081046 55 0 0.0 0.0 0.00 0.00 0.00 92 1018.5
20260504080548 55 0 0.0 0.0 0.00 0.00 0.00 92 1018.4
20260504050545 56 0 0.0 0.0 0.00 0.00 0.00 88 1019.5
20260504050107 56 0 0.0 0.0 0.00 0.00 0.00 87 1019.5
20260504045546 57 0 0.0 0.0 0.00 0.00 0.00 87 1019.6
20260504045046 56 0 0.0 0.0 0.00 0.00 0.00 86 1019.7
20260504044602 57 0 0.0 0.0 0.00 0.00 0.00 86 1019.6
20260504044047 57 0 0.0 0.0 0.00 0.00 0.00 86 1019.6
20260504043546 57 0 0.0 0.0 0.00 0.00 0.00 85 1019.7
20260504043056 57 0 0.0 0.0 0.00 0.00 0.00 85 1019.6
20260504042544 57 0 0.0 0.0 0.00 0.00 0.00 85 1019.6
20260504042042 57 0 0.0 0.0 0.00 0.00 0.00 85 1019.6
20260504041553 57 0 0.0 0.0 0.00 0.00 0.00 85 1019.5
20260504041043 57 0 0.0 0.0 0.00 0.00 0.00 84 1019.5
20260504040544 57 0 0.0 0.0 0.00 0.00 0.00 84 1019.5
20260504040107 58 0 0.0 0.0 0.00 0.00 0.00 84 1019.6
20260504035544 58 0 0.0 0.0 0.00 0.00 0.00 83 1019.6
20260504035043 58 0 0.0 0.0 0.00 0.00 0.00 83 1019.6